1514548800.46,59676,6.44,71916.8,-7.83,-8.29,-8.25,0,*5B
1514548801.69,59677,6.38,71918.5,-7.81,-8.25,-8.21,0,*50
1514548802.9,59678,6.44,71916.0,-7.83,-8.37,-8.29,0,*56
1514548804.11,59679,6.38,71918.0,-7.83,-8.25,-8.37,0,*5B
1514548805.32,59680,6.44,71916.8,-7.83,-8.37,-8.37,0,*5E
1514548806.52,59681,6.44,71916.0,-7.83,-8.29,-8.29,0,*5F
1514548807.75,59682,6.44,71916.8,-7.81,-8.25,-8.21,0,*5A
1514548808.95,59683,6.44,71916.0,-7.83,-8.29,-8.29,0,*5D
1514548810.15,59684,6.38,71918.3,-7.83,-8.37,-8.29,0,*55
1514548811.36,59685,6.38,71916.8,-7.83,-8.37,-8.25,0,*58
1514548812.57,59686,6.44,71916.3,-7.83,-8.37,-8.37,0,*58
1514548813.78,59687,6.44,71922.8,-7.83,-8.37,-8.25,0,*5A
1514548814.98,59688,6.38,71914.5,-7.83,-8.37,-8.29,0,*59
1514548816.18,59689,6.44,71920.0,-7.83,-8.29,-8.29,0,*57
1514548817.38,59690,6.44,71920.3,-7.83,-8.29,-8.25,0,*53
1514548818.59,59691,6.44,71918.8,-7.83,-8.29,-8.29,0,*5E
1514548819.79,59692,6.44,71922.3,-7.83,-8.29,-8.29,0,*5D
1514548821.01,59693,6.44,71924.3,-7.85,-8.37,-8.29,0,*55
1514548822.22,59694,6.38,71916.8,-7.89,-8.41,-8.37,0,*50
1514548823.44,59695,6.44,71922.8,-7.85,-8.37,-8.29,0,*53
1514548824.66,59696,6.44,71920.3,-7.85,-8.29,-8.29,0,*5F
1514548825.88,59697,6.44,71922.8,-7.85,-8.29,-8.29,0,*5E
1514548827.11,59698,6.38,71916.5,-7.85,-8.29,-8.37,0,*5E
1514548828.34,59699,6.44,71922.0,-7.85,-8.37,-8.37,0,*50
1514548829.56,59700,6.38,71916.0,-7.85,-8.29,-8.29,0,*51
1514548830.79,59701,6.38,71918.3,-7.85,-8.37,-8.29,0,*5F
1514548832.02,59702,6.44,71920.8,-7.85,-8.37,-8.29,0,*5C
1514548833.24,59703,6.38,71916.8,-7.85,-8.37,-8.29,0,*5D
1514548834.46,59704,6.38,71918.5,-7.85,-8.29,-8.29,0,*55
1514548835.65,59705,6.44,71920.0,-7.89,-8.29,-8.25,0,*54
1514548836.88,59706,6.44,71920.5,-7.85,-8.29,-8.29,0,*57
1514548838.07,59707,6.44,71920.0,-7.89,-8.37,-8.25,0,*59
1514548839.27,59708,6.38,71918.0,-7.89,-8.29,-8.37,0,*5A
1514548840.5,59709,6.38,71918.8,-7.85,-8.37,-8.29,0,*57
1514548841.72,59710,6.44,71922.0,-7.85,-8.41,-8.25,0,*52
1514548842.94,59711,6.44,71920.0,-7.85,-8.29,-8.29,0,*51
1514548844.13,59712,6.44,71918.3,-7.89,-8.33,-8.33,0,*5E
1514548845.36,59713,6.44,71922.8,-7.85,-8.29,-8.37,0,*5C
1514548846.56,59714,6.44,71920.5,-7.89,-8.41,-8.41,0,*58
1514548847.78,59715,6.44,71920.5,-7.85,-8.37,-8.25,0,*56
1514548848.97,59716,6.44,71920.3,-7.89,-8.41,-8.33,0,*5F
1514548850.16,59717,6.44,71924.3,-7.89,-8.33,-8.33,0,*5B
1514548851.38,59718,6.44,71920.8,-7.85,-8.29,-8.41,0,*56
1514548852.57,59719,6.44,71918.8,-7.89,-8.33,-8.41,0,*50
1514548853.76,59720,6.44,71916.3,-7.89,-8.33,-8.33,0,*5F
1514548854.98,59721,6.44,71922.3,-7.85,-8.29,-8.29,0,*52
1514548856.17,59722,6.44,71920.0,-7.89,-8.33,-8.33,0,*5D
1514548857.36,59723,6.44,71918.3,-7.89,-8.41,-8.33,0,*59
1514548858.55,59724,6.44,71916.0,-7.89,-8.33,-8.33,0,*5B
1514548859.73,59725,6.44,71918.0,-7.89,-8.33,-8.33,0,*5A
1514548860.95,59726,6.44,71922.8,-7.85,-8.29,-8.29,0,*55
1514548862.14,59727,6.44,71922.0,-7.89,-8.33,-8.33,0,*58
1514548863.33,59728,6.44,71920.5,-7.89,-8.33,-8.29,0,*5C
1514548864.52,59729,6.44,71920.8,-7.89,-8.33,-8.33,0,*56
1514548865.71,59730,6.44,71922.0,-7.89,-8.33,-8.29,0,*55
1514548866.9,59731,6.44,71922.0,-7.89,-8.41,-8.33,0,*5A
1514548868.09,59732,6.44,71920.3,-7.89,-8.41,-8.33,0,*59
1514548869.28,59733,6.44,71922.3,-7.89,-8.33,-8.33,0,*5D
1514548870.49,59734,6.44,71922.0,-7.91,-8.33,-8.33,0,*53
1514548871.71,59735,6.44,71920.8,-7.91,-8.41,-8.33,0,*57
1514548872.9,59736,6.44,71922.8,-7.89,-8.33,-8.29,0,*53
1514548874.09,59737,6.44,71926.8,-7.89,-8.29,-8.29,0,*59
1514548875.29,59738,6.38,71920.0,-7.89,-8.29,-8.29,0,*56
1514548876.47,59739,6.38,71920.0,-7.89,-8.33,-8.33,0,*57
1514548877.69,59740,6.44,71922.0,-7.85,-8.29,-8.25,0,*59
1514548878.89,59741,6.44,71920.3,-7.89,-8.29,-8.29,0,*58
1514548880.07,59742,6.44,71920.8,-7.89,-8.33,-8.33,0,*5B
1514548881.26,59743,6.44,71920.0,-7.89,-8.33,-8.29,0,*51
1514548882.48,59744,6.44,71918.8,-7.91,-8.29,-8.29,0,*54
1514548883.7,59745,6.44,71922.8,-7.91,-8.33,-8.29,0,*5E
1514548884.89,59746,6.44,71918.5,-7.89,-8.33,-8.29,0,*54
1514548886.08,59747,6.44,71918.0,-7.89,-8.33,-8.29,0,*55
1514548887.27,59748,6.44,71922.3,-7.89,-8.29,-8.29,0,*51
1514548888.47,59749,6.44,71920.8,-7.89,-8.29,-8.29,0,*50
1514548889.69,59750,6.44,71920.3,-7.85,-8.25,-8.17,0,*55
1514548890.89,59751,6.44,71924.8,-7.89,-8.29,-8.21,0,*51
1514548892.11,59752,6.44,71920.3,-7.91,-8.29,-8.29,0,*53
1514548893.29,59753,6.44,71920.0,-7.89,-8.29,-8.33,0,*50
1514548894.48,59754,6.44,71920.5,-7.89,-8.33,-8.33,0,*5C
1514548895.67,59755,6.44,71920.8,-7.89,-8.33,-8.29,0,*56
1514548896.86,59756,6.44,71916.8,-7.89,-8.33,-8.29,0,*55
1514548898.05,59757,6.38,71914.0,-7.89,-8.29,-8.29,0,*5F
1514548899.24,59758,6.44,71918.0,-7.89,-8.33,-8.29,0,*5B
1514548900.43,59759,6.44,71916.5,-7.89,-8.33,-8.29,0,*5A
1514548901.65,59760,6.44,71920.3,-7.91,-8.29,-8.29,0,*52
1514548902.87,59761,6.38,71918.0,-7.91,-8.33,-8.29,0,*58
1514548904.06,59762,6.44,71922.8,-7.89,-8.29,-8.29,0,*59
1514548905.25,59763,6.44,71918.0,-7.89,-8.33,-8.29,0,*53
1514548906.44,59764,6.44,71918.5,-7.89,-8.29,-8.33,0,*54
1514548907.64,59765,6.44,71918.5,-7.89,-8.21,-8.29,0,*56
1514548908.83,59766,6.44,71922.0,-7.89,-8.29,-8.29,0,*5D
1514548910.05,59767,6.44,71920.3,-7.85,-8.29,-8.17,0,*5D
1514548911.24,59768,6.44,71926.5,-7.89,-8.29,-8.29,0,*53
1514548912.46,59769,6.38,71922.8,-7.91,-8.33,-8.21,0,*58
1514548913.65,59770,6.44,71922.0,-7.89,-8.33,-8.29,0,*51
1514548914.84,59771,6.44,71924.5,-7.89,-8.29,-8.33,0,*50
1514548916.06,59772,6.44,71924.5,-7.91,-8.33,-8.29,0,*5A
1514548917.27,59773,6.44,71926.0,-7.91,-8.33,-8.29,0,*5B
1514548918.49,59774,6.44,71924.0,-7.91,-8.33,-8.21,0,*54
1514548919.71,59775,6.44,71926.8,-7.91,-8.33,-8.29,0,*5D
1514548920.93,59776,6.44,71920.8,-7.91,-8.33,-8.29,0,*5E
1514548922.13,59777,6.44,71926.0,-7.93,-8.37,-8.37,0,*56
1514548923.35,59778,6.44,71926.3,-7.91,-8.29,-8.21,0,*53
1514548924.57,59779,6.44,71926.8,-7.91,-8.29,-8.29,0,*5A
1514548925.79,59780,6.44,71924.3,-7.91,-8.33,-8.29,0,*57
1514548927.0,59781,6.44,71922.5,-7.91,-8.33,-8.29,0,*56
1514548928.22,59782,6.38,71920.0,-7.91,-8.33,-8.29,0,*55
1514548929.44,59783,6.44,71926.0,-7.91,-8.29,-8.29,0,*5F
1514548930.66,59784,6.44,71924.5,-7.91,-8.33,-8.29,0,*53
1514548931.84,59785,6.44,71922.5,-7.93,-8.33,-8.33,0,*5B
1514548933.06,59786,6.44,71922.3,-7.91,-8.29,-8.29,0,*5A
1514548934.27,59787,6.44,71920.8,-7.91,-8.33,-8.29,0,*50
1514548935.49,59788,6.44,71922.5,-7.91,-8.29,-8.33,0,*5F
1514548936.7,59789,6.44,71922.5,-7.91,-8.33,-8.33,0,*55
1514548937.92,59790,6.44,71922.8,-7.91,-8.29,-8.29,0,*5D
1514548939.14,59791,6.44,71922.3,-7.91,-8.29,-8.29,0,*5C
1514548940.36,59792,6.44,71922.0,-7.91,-8.29,-8.29,0,*5F
1514548941.56,59793,6.38,71920.5,-7.93,-8.33,-8.37,0,*58
1514548942.78,59794,6.44,71920.5,-7.91,-8.29,-8.17,0,*54
1514548944.0,59795,6.44,71926.5,-7.91,-8.29,-8.21,0,*50
1514548945.19,59796,6.44,71918.8,-7.93,-8.25,-8.25,0,*59
1514548946.42,59797,6.44,71920.5,-7.91,-8.29,-8.21,0,*52
1514548947.6,59798,6.44,71920.0,-7.93,-8.33,-8.25,0,*50
1514548948.83,59799,6.44,71918.8,-7.91,-8.29,-8.21,0,*5C
1514548950.05,59800,6.44,71922.5,-7.91,-8.29,-8.21,0,*53
1514548951.27,59801,6.44,71920.5,-7.91,-8.29,-8.21,0,*52
1514548952.46,59802,6.38,71918.3,-7.93,-8.29,-8.17,0,*56
1514548953.69,59803,6.44,71916.8,-7.91,-8.29,-8.21,0,*50
1514548954.88,59804,6.44,71918.8,-7.93,-8.29,-8.21,0,*55
1514548956.1,59805,6.44,71920.8,-7.91,-8.29,-8.29,0,*5E
1514548957.32,59806,6.44,71920.8,-7.91,-8.29,-8.29,0,*5D
1514548958.54,59807,6.44,71916.5,-7.91,-8.29,-8.29,0,*5C
1514548959.76,59808,6.44,71920.3,-7.91,-8.29,-8.21,0,*5B
1514548960.98,59809,6.44,71916.8,-7.91,-8.33,-8.21,0,*51
1514548962.2,59810,6.44,71922.0,-7.91,-8.29,-8.29,0,*5A
1514548963.42,59811,6.44,71916.8,-7.91,-8.29,-8.21,0,*53
1514548964.64,59812,6.44,71922.0,-7.91,-8.29,-8.29,0,*58
1514548965.86,59813,6.44,71922.5,-7.91,-8.33,-8.29,0,*52
1514548967.08,59814,6.44,71920.8,-7.91,-8.29,-8.21,0,*56
1514548968.27,59815,6.44,71916.8,-7.93,-8.33,-8.25,0,*5A
1514548969.49,59816,6.44,71916.5,-7.91,-8.29,-8.33,0,*57
1514548970.7,59817,6.44,71920.0,-7.91,-8.33,-8.29,0,*56
1514548971.89,59818,6.44,71916.5,-7.93,-8.33,-8.33,0,*50
1514548973.08,59819,6.44,71916.5,-7.93,-8.37,-8.33,0,*55
1514548974.29,59820,6.44,71918.8,-7.91,-8.33,-8.29,0,*52
1514548975.51,59821,6.44,71920.0,-7.91,-8.29,-8.29,0,*58
1514548976.73,59822,6.44,71918.5,-7.91,-8.33,-8.21,0,*58
1514548977.95,59823,6.44,71922.3,-7.91,-8.33,-8.29,0,*51
1514548979.17,59824,6.44,71920.5,-7.91,-8.29,-8.29,0,*5D
1514548980.39,59825,6.44,71922.3,-7.91,-8.29,-8.29,0,*5C
1514548981.6,59826,6.44,71922.8,-7.91,-8.33,-8.29,0,*54
1514548982.82,59827,6.38,71918.3,-7.91,-8.29,-8.29,0,*5E
1514548984.04,59828,6.44,71920.5,-7.91,-8.33,-8.29,0,*5A
1514548985.26,59829,6.44,71922.3,-7.91,-8.33,-8.29,0,*5B
1514548986.45,59830,6.44,71920.3,-7.93,-8.37,-8.33,0,*5E
1514548987.66,59831,6.44,71916.5,-7.91,-8.33,-8.33,0,*59
1514548988.88,59832,6.44,71916.3,-7.91,-8.29,-8.29,0,*5A
1514548990.07,59833,6.44,71916.5,-7.93,-8.37,-8.33,0,*5D
1514548991.29,59834,6.44,71920.5,-7.91,-8.33,-8.29,0,*57
1514548992.48,59835,6.44,71916.8,-7.93,-8.33,-8.37,0,*5B
1514548993.7,59836,6.44,71918.8,-7.91,-8.33,-8.29,0,*55
1514548994.91,59837,6.44,71914.0,-7.91,-8.33,-8.33,0,*5F
1514548996.11,59838,6.44,71914.8,-7.93,-8.45,-8.37,0,*57
1514548997.31,59839,6.44,71916.3,-7.93,-8.45,-8.37,0,*56
1514548998.51,59840,6.44,71914.5,-7.93,-8.45,-8.37,0,*58
1514548999.71,59841,6.44,71916.0,-7.93,-8.45,-8.37,0,*59
1514549000.91,59842,6.44,71918.8,-7.93,-8.37,-8.37,0,*5F
1514549002.11,59843,6.44,71920.0,-7.93,-8.37,-8.37,0,*5E
1514549003.31,59844,6.44,71916.5,-7.93,-8.45,-8.37,0,*5C
1514549004.51,59845,6.44,71916.8,-7.93,-8.45,-8.45,0,*58
1514549005.73,59846,6.44,71918.0,-7.91,-8.41,-8.41,0,*59
1514549006.93,59847,6.44,71918.8,-7.93,-8.37,-8.45,0,*5F
1514549008.13,59848,6.44,71920.5,-7.93,-8.37,-8.37,0,*55
1514549009.32,59849,6.44,71920.5,-7.93,-8.37,-8.33,0,*50
1514549010.52,59850,6.44,71916.5,-7.93,-8.37,-8.37,0,*5C
1514549011.72,59851,6.44,71920.8,-7.93,-8.37,-8.37,0,*5D
1514549012.91,59852,6.44,71918.3,-7.93,-8.45,-8.33,0,*5F
1514549014.11,59853,6.44,71920.8,-7.93,-8.45,-8.37,0,*5A
1514549015.31,59854,6.44,71920.0,-7.93,-8.37,-8.37,0,*58
1514549016.52,59855,6.44,71916.5,-7.93,-8.37,-8.37,0,*59
1514549017.72,59856,6.44,71922.8,-7.93,-8.37,-8.37,0,*5A
1514549018.92,59857,6.44,71916.5,-7.93,-8.37,-8.37,0,*5B
1514549020.11,59858,6.44,71920.3,-7.93,-8.45,-8.45,0,*54
1514549021.31,59859,6.44,71924.3,-7.93,-8.37,-8.37,0,*55
1514549022.51,59860,6.44,71920.5,-7.93,-8.45,-8.37,0,*5A
1514549023.74,59861,6.44,71920.5,-7.95,-8.45,-8.37,0,*5D
1514549024.97,59862,6.44,71920.5,-7.95,-8.45,-8.45,0,*5B
1514549026.19,59863,6.44,71916.5,-7.95,-8.45,-8.45,0,*5A
1514549027.41,59864,6.44,71920.5,-7.97,-8.51,-8.41,0,*5E
1514549028.64,59865,6.44,71918.5,-7.95,-8.37,-8.37,0,*5C
1514549029.87,59866,6.44,71920.3,-7.95,-8.45,-8.37,0,*5A
1514549031.1,59867,6.44,71922.5,-7.95,-8.45,-8.37,0,*5B
1514549032.3,59868,6.44,71922.8,-7.97,-8.45,-8.37,0,*56
1514549033.5,59869,6.44,71920.0,-7.97,-8.45,-8.37,0,*57
1514549034.73,59870,6.44,71922.8,-7.95,-8.45,-8.37,0,*5D
1514549035.98,59871,6.44,71922.3,-7.95,-8.51,-8.37,0,*59
1514549037.24,59872,6.44,71918.3,-7.97,-8.51,-8.51,0,*58
1514549038.46,59873,6.44,71920.8,-7.95,-8.45,-8.45,0,*5B
1514549039.66,59874,6.44,71920.8,-7.97,-8.55,-8.41,0,*5B
1514549040.91,59875,6.44,71916.8,-7.97,-8.51,-8.51,0,*5F
1514549042.16,59876,6.44,71918.5,-7.95,-8.45,-8.51,0,*5B
1514549043.41,59877,6.44,71920.0,-7.95,-8.51,-8.45,0,*5A
1514549044.63,59878,6.44,71918.3,-7.95,-8.45,-8.45,0,*50
1514549045.88,59879,6.44,71916.0,-7.95,-8.51,-8.45,0,*54
1514549047.1,59880,6.44,71916.0,-7.97,-8.55,-8.51,0,*51
1514549048.35,59881,6.44,71916.0,-7.95,-8.45,-8.51,0,*53
1514549049.54,59882,6.44,71918.0,-7.97,-8.55,-8.55,0,*57
1514549050.77,59883,6.44,71912.5,-7.97,-8.55,-8.51,0,*52
1514549052.02,59884,6.44,71918.5,-7.95,-8.45,-8.51,0,*56
1514549053.21,59885,6.44,71918.0,-7.97,-8.55,-8.55,0,*50
1514549054.44,59886,6.44,71920.0,-7.97,-8.55,-8.51,0,*57
1514549055.66,59887,6.44,71920.0,-7.97,-8.55,-8.51,0,*56
1514549056.91,59888,6.44,71922.8,-7.95,-8.51,-8.45,0,*5A
1514549058.16,59889,6.38,71918.8,-7.97,-8.51,-8.51,0,*5C
1514549059.38,59890,6.44,71922.3,-7.97,-8.51,-8.55,0,*50
1514549060.6,59891,6.44,71924.0,-7.99,-8.59,-8.59,0,*5B
1514549061.83,59892,6.44,71922.0,-7.97,-8.55,-8.51,0,*52
1514549063.05,59893,6.44,71918.0,-7.99,-8.55,-8.55,0,*59
1514549064.24,59894,6.44,71922.0,-7.97,-8.63,-8.55,0,*55
1514549065.47,59895,6.38,71916.0,-7.95,-8.45,-8.45,0,*53
1514549066.68,59896,6.44,71922.5,-7.97,-8.51,-8.55,0,*56
1514549067.93,59897,6.44,71918.3,-7.97,-8.51,-8.51,0,*53
1514549069.19,59898,6.44,71922.0,-7.97,-8.51,-8.51,0,*5C
1514549070.41,59899,6.44,71922.0,-7.97,-8.55,-8.51,0,*59
1514549071.64,59900,6.38,71918.8,-7.99,-8.55,-8.59,0,*5E
1514549072.86,59901,6.44,71922.0,-7.99,-8.59,-8.59,0,*53
1514549074.08,59902,6.44,71920.8,-7.99,-8.59,-8.55,0,*5C
1514549075.3,59903,6.44,71922.3,-7.99,-8.55,-8.55,0,*51
1514549076.52,59904,6.44,71924.3,-7.99,-8.55,-8.55,0,*56
1514549077.75,59905,6.44,71928.5,-7.99,-8.59,-8.59,0,*57
1514549078.97,59906,6.44,71928.3,-7.99,-8.59,-8.55,0,*58
1514549080.17,59907,6.44,71924.3,-8.01,-8.55,-8.59,0,*57
1514549081.39,59908,6.44,71924.8,-7.99,-8.55,-8.55,0,*5A
1514549082.61,59909,6.44,71926.3,-7.99,-8.59,-8.55,0,*57
1514549083.8,59910,6.38,71920.8,-8.01,-8.59,-8.55,0,*51
1514549085.0,59911,6.44,71926.5,-8.01,-8.55,-8.55,0,*5C
1514549086.19,59912,6.44,71924.3,-8.01,-8.55,-8.55,0,*5F
1514549087.42,59913,6.44,71924.3,-7.99,-8.55,-8.55,0,*50
1514549088.64,59914,6.44,71928.0,-7.99,-8.59,-8.45,0,*5A
1514549089.87,59915,6.44,71926.0,-7.99,-8.55,-8.55,0,*56
1514549091.1,59916,6.44,71924.0,-7.99,-8.45,-8.45,0,*55
1514549092.3,59917,6.44,71922.0,-8.01,-8.55,-8.45,0,*5B
1514549093.53,59918,6.44,71924.0,-7.99,-8.55,-8.45,0,*5A
1514549094.76,59919,6.44,71922.0,-7.99,-8.55,-8.45,0,*5B
1514549096.0,59920,6.44,71924.3,-7.99,-8.55,-8.45,0,*51
1514549097.2,59921,6.44,71922.8,-8.01,-8.55,-8.45,0,*5E
1514549098.43,59922,6.44,71924.3,-7.99,-8.55,-8.45,0,*53
1514549099.66,59923,6.44,71922.5,-7.99,-8.55,-8.55,0,*53
1514549100.89,59924,6.44,71924.5,-7.99,-8.55,-8.45,0,*55
1514549102.09,59925,6.44,71926.5,-8.01,-8.55,-8.45,0,*5A
1514549103.29,59926,6.44,71922.3,-8.01,-8.55,-8.55,0,*58
1514549104.49,59927,6.44,71926.0,-8.01,-8.45,-8.59,0,*54
1514549105.69,59928,6.44,71926.3,-8.01,-8.55,-8.45,0,*57
1514549106.92,59929,6.44,71926.3,-7.99,-8.55,-8.45,0,*58
1514549108.14,59930,6.44,71926.0,-7.99,-8.55,-8.55,0,*51
1514549109.34,59931,6.44,71924.5,-8.01,-8.45,-8.55,0,*5F
1514549110.56,59932,6.44,71926.5,-7.99,-8.45,-8.55,0,*52
1514549111.76,59933,6.44,71928.5,-8.01,-8.55,-8.45,0,*5D
1514549112.97,59934,6.44,71924.8,-8.01,-8.55,-8.45,0,*5A
1514549114.17,59935,6.44,71924.5,-8.01,-8.45,-8.45,0,*5A
1514549115.37,59936,6.44,71930.0,-8.01,-8.45,-8.55,0,*58
1514549116.56,59937,6.44,71930.3,-8.01,-8.55,-8.55,0,*58
1514549117.78,59938,6.44,71926.5,-7.99,-8.55,-8.55,0,*59
1514549119.02,59939,6.44,71928.0,-7.99,-8.55,-8.45,0,*59
1514549120.22,59940,6.44,71928.5,-8.01,-8.55,-8.45,0,*59
1514549121.45,59941,6.44,71926.5,-7.99,-8.45,-8.45,0,*57
1514549122.65,59942,6.44,71926.8,-8.01,-8.45,-8.41,0,*5E
1514549123.86,59943,6.44,71930.8,-8.01,-8.45,-8.45,0,*5B
1514549125.06,59944,6.44,71926.5,-8.01,-8.45,-8.45,0,*5C
1514549126.25,59945,6.44,71928.3,-8.01,-8.41,-8.55,0,*58
1514549127.45,59946,6.44,71924.5,-8.01,-8.45,-8.45,0,*5E
1514549128.68,59947,6.44,71928.5,-7.99,-8.45,-8.41,0,*55
1514549129.89,59948,6.44,71926.8,-8.01,-8.45,-8.45,0,*50
1514549131.09,59949,6.44,71928.3,-8.01,-8.45,-8.41,0,*55
1514549132.29,59950,6.44,71926.3,-8.01,-8.41,-8.41,0,*59
1514549133.49,59951,6.44,71932.8,-8.01,-8.41,-8.41,0,*58
1514549134.69,59952,6.44,71928.5,-8.01,-8.41,-8.41,0,*5B
1514549135.91,59953,6.38,71926.8,-7.99,-8.45,-8.41,0,*50
1514549137.12,59954,6.44,71926.5,-8.01,-8.41,-8.41,0,*5D
1514549138.31,59955,6.44,71926.3,-8.01,-8.45,-8.33,0,*5D
1514549139.51,59956,6.44,71924.0,-8.01,-8.45,-8.41,0,*5B
1514549140.71,59957,6.44,71926.8,-8.01,-8.41,-8.41,0,*5E
1514549141.91,59958,6.44,71922.5,-8.01,-8.41,-8.41,0,*51
1514549143.11,59959,6.44,71928.0,-8.01,-8.41,-8.41,0,*50
1514549144.31,59960,6.44,71924.3,-8.01,-8.41,-8.41,0,*5A
1514549145.51,59961,6.44,71926.5,-8.01,-8.41,-8.41,0,*5B
1514549146.71,59962,6.44,71926.8,-8.01,-8.41,-8.41,0,*58
1514549147.91,59963,6.38,71926.0,-8.01,-8.45,-8.41,0,*5D
1514549149.11,59964,6.44,71930.3,-8.01,-8.41,-8.41,0,*5E
1514549150.34,59965,6.44,71924.8,-7.99,-8.41,-8.45,0,*55
1514549151.54,59966,6.44,71928.3,-8.01,-8.45,-8.41,0,*58
1514549152.74,59967,6.44,71930.0,-8.01,-8.41,-8.41,0,*5D
1514549153.94,59968,6.44,71928.8,-8.01,-8.41,-8.41,0,*52
1514549155.15,59969,6.44,71928.8,-8.01,-8.45,-8.41,0,*57
1514549156.35,59970,6.44,71932.0,-8.01,-8.41,-8.41,0,*5B
1514549157.55,59971,6.44,71930.0,-8.01,-8.41,-8.41,0,*5A
1514549158.75,59972,6.44,71926.5,-8.01,-8.45,-8.41,0,*5D
1514549159.95,59973,6.44,71926.8,-8.01,-8.45,-8.45,0,*58
1514549161.15,59974,6.44,71928.5,-8.01,-8.45,-8.45,0,*5F
1514549162.35,59975,6.44,71930.0,-8.01,-8.41,-8.41,0,*5E
1514549163.55,59976,6.44,71930.0,-8.01,-8.41,-8.41,0,*5D
1514549164.75,59977,6.44,71928.0,-8.01,-8.45,-8.41,0,*58
1514549165.95,59978,6.44,71928.3,-8.01,-8.45,-8.41,0,*57
1514549167.15,59979,6.44,71928.5,-8.01,-8.41,-8.41,0,*52
1514549168.38,59980,6.44,71930.3,-8.03,-8.45,-8.45,0,*56
1514549169.58,59981,6.44,71932.0,-8.01,-8.45,-8.45,0,*55
1514549170.79,59982,6.44,71928.5,-8.01,-8.45,-8.45,0,*56
1514549171.99,59983,6.44,71934.0,-8.01,-8.45,-8.45,0,*57
1514549173.19,59984,6.44,71930.8,-8.01,-8.45,-8.41,0,*54
1514549174.39,59985,6.44,71928.0,-8.01,-8.41,-8.45,0,*55
1514549175.6,59986,6.44,71930.5,-8.01,-8.41,-8.45,0,*56
1514549176.8,59987,6.44,71930.5,-8.01,-8.45,-8.45,0,*53
1514549178.0,59988,6.44,71928.8,-8.01,-8.41,-8.41,0,*5C
1514549179.2,59989,6.44,71934.3,-8.01,-8.45,-8.41,0,*59
1514549180.45,59990,6.44,71926.8,-8.03,-8.51,-8.45,0,*52
1514549181.71,59991,6.44,71932.3,-8.03,-8.51,-8.45,0,*53
1514549182.98,59992,6.44,71930.0,-8.03,-8.51,-8.51,0,*55
1514549184.21,59993,6.44,71928.5,-8.03,-8.45,-8.45,0,*54
1514549185.49,59994,6.44,71932.5,-8.03,-8.51,-8.51,0,*53
1514549186.72,59995,6.44,71930.3,-8.03,-8.45,-8.45,0,*52
1514549187.97,59996,6.44,71930.3,-8.03,-8.45,-8.51,0,*54
1514549189.22,59997,6.44,71926.5,-8.03,-8.45,-8.51,0,*55
1514549190.46,59998,6.44,71928.8,-8.03,-8.59,-8.51,0,*57
1514549191.74,59999,6.44,71928.0,-8.03,-8.51,-8.51,0,*5E
1514549192.94,60000,6.44,71932.0,-8.01,-8.41,-8.45,0,*5B
1514549194.22,60001,6.44,71928.0,-8.03,-8.51,-8.51,0,*5C
1514549195.45,60002,6.44,71924.8,-8.05,-8.51,-8.45,0,*5C
1514549196.7,60003,6.44,71926.0,-8.03,-8.45,-8.51,0,*5B
1514549197.95,60004,6.44,71930.8,-8.03,-8.45,-8.51,0,*5C
1514549199.22,60005,6.44,71924.0,-8.03,-8.51,-8.51,0,*58
1514549200.5,60006,6.44,71926.5,-8.03,-8.51,-8.51,0,*5B
1514549201.78,60007,6.44,71930.5,-8.03,-8.51,-8.51,0,*5A
1514549203.05,60008,6.44,71928.8,-8.03,-8.51,-8.51,0,*55
1514549204.3,60009,6.44,71928.8,-8.05,-8.51,-8.51,0,*52
1514549205.56,60010,6.44,71930.0,-8.03,-8.45,-8.51,0,*59
1514549206.83,60011,6.44,71928.5,-8.03,-8.51,-8.51,0,*5D
1514549208.06,60012,6.44,71930.0,-8.03,-8.45,-8.45,0,*5E
1514549209.34,60013,6.44,71932.5,-8.03,-8.51,-8.51,0,*5F
1514549210.54,60014,6.44,71934.0,-8.05,-8.45,-8.45,0,*5E
1514549211.81,60015,6.38,71926.5,-8.03,-8.51,-8.51,0,*59
1514549213.07,60016,6.44,71932.3,-8.03,-8.51,-8.45,0,*5F
1514549214.34,60017,6.44,71932.3,-8.03,-8.51,-8.51,0,*5B
1514549215.6,60018,6.44,71930.5,-8.03,-8.51,-8.45,0,*51
1514549216.87,60019,6.44,71930.5,-8.03,-8.51,-8.51,0,*55
1514549218.1,60020,6.44,71928.3,-8.03,-8.45,-8.45,0,*5F
1514549219.38,60021,6.44,71932.3,-8.03,-8.51,-8.51,0,*5E
1514549220.63,60022,6.44,71928.3,-8.05,-8.51,-8.51,0,*5B
1514549221.88,60023,6.44,71930.5,-8.03,-8.51,-8.45,0,*59
1514549223.13,60024,6.44,71930.8,-8.05,-8.51,-8.51,0,*5D
1514549224.35,60025,6.44,71928.3,-8.03,-8.45,-8.59,0,*57
1514549225.55,60026,6.44,71934.8,-8.05,-8.45,-8.45,0,*5F
1514549226.8,60027,6.44,71932.8,-8.03,-8.45,-8.51,0,*5D
1514549228.03,60028,6.44,71930.5,-8.05,-8.45,-8.51,0,*54
1514549229.3,60029,6.44,71928.0,-8.03,-8.51,-8.51,0,*56
1514549230.53,60030,6.44,71928.5,-8.05,-8.51,-8.45,0,*5D
1514549231.78,60031,6.44,71930.8,-8.03,-8.51,-8.45,0,*5A
1514549233.04,60032,6.44,71928.3,-8.05,-8.51,-8.51,0,*5A
1514549234.24,60033,6.44,71932.8,-8.05,-8.45,-8.45,0,*5B
1514549235.46,60034,6.44,71930.5,-8.05,-8.51,-8.45,0,*59
1514549236.66,60035,6.44,71936.0,-8.05,-8.45,-8.45,0,*5D
1514549237.91,60036,6.44,71930.3,-8.05,-8.51,-8.51,0,*5E
1514549239.16,60037,6.44,71932.0,-8.05,-8.51,-8.51,0,*5F
1514549240.39,60038,6.44,71930.5,-8.05,-8.45,-8.51,0,*55
1514549241.61,60039,6.44,71932.3,-8.05,-8.45,-8.51,0,*54
1514549242.86,60040,6.44,71930.5,-8.05,-8.51,-8.51,0,*5F
1514549244.11,60041,6.44,71930.0,-8.05,-8.51,-8.51,0,*5E
1514549245.39,60042,6.44,71934.0,-8.03,-8.51,-8.51,0,*5B
1514549246.58,60043,6.44,71928.8,-8.05,-8.45,-8.59,0,*51
1514549247.77,60044,6.44,71932.8,-8.05,-8.59,-8.59,0,*5B
1514549249.0,60045,6.44,71932.0,-8.05,-8.59,-8.51,0,*52
1514549250.25,60046,6.44,71934.5,-8.03,-8.51,-8.45,0,*5A
1514549251.47,60047,6.44,71932.5,-8.05,-8.59,-8.51,0,*50
1514549252.72,60048,6.44,71932.3,-8.03,-8.59,-8.51,0,*59
1514549253.95,60049,6.44,71932.0,-8.05,-8.51,-8.45,0,*53
1514549255.2,60050,6.44,71932.8,-8.05,-8.51,-8.51,0,*5E
1514549256.45,60051,6.44,71928.0,-8.05,-8.51,-8.51,0,*5F
1514549257.67,60052,6.44,71930.8,-8.05,-8.51,-8.45,0,*59
1514549258.9,60053,6.44,71930.8,-8.05,-8.51,-8.45,0,*58
1514549260.15,60054,6.44,71932.0,-8.05,-8.51,-8.51,0,*5A
1514549261.38,60055,6.44,71932.5,-8.05,-8.51,-8.45,0,*5E
1514549262.61,60056,6.44,71930.8,-8.03,-8.45,-8.45,0,*5E
1514549263.83,60057,6.44,71930.8,-8.05,-8.51,-8.45,0,*5C
1514549265.08,60058,6.44,71930.5,-8.05,-8.51,-8.51,0,*56
1514549266.31,60059,6.44,71934.0,-8.05,-8.45,-8.51,0,*52
1514549267.56,60060,6.44,71930.8,-8.07,-8.51,-8.45,0,*5A
1514549268.78,60061,6.44,71928.3,-8.05,-8.45,-8.51,0,*59
1514549269.98,60062,6.44,71932.0,-8.05,-8.45,-8.45,0,*5F
1514549271.18,60063,6.44,71932.0,-8.05,-8.45,-8.45,0,*5E
1514549272.39,60064,6.44,71932.8,-8.05,-8.45,-8.45,0,*59
1514549273.61,60065,6.44,71928.5,-8.05,-8.51,-8.45,0,*5D
1514549274.81,60066,6.44,71932.0,-8.05,-8.45,-8.45,0,*5B
1514549276.04,60067,6.44,71928.8,-8.05,-8.45,-8.51,0,*5F
1514549277.26,60068,6.44,71930.8,-8.05,-8.45,-8.51,0,*50
1514549278.49,60069,6.44,71930.0,-8.05,-8.51,-8.45,0,*51
1514549279.74,60070,6.44,71930.8,-8.07,-8.51,-8.45,0,*5B
1514549280.99,60071,6.44,71930.0,-8.05,-8.51,-8.51,0,*5D
1514549282.22,60072,6.44,71934.5,-8.07,-8.45,-8.45,0,*5C
1514549283.47,60073,6.44,71932.3,-8.07,-8.45,-8.51,0,*58
1514549284.72,60074,6.44,71932.3,-8.07,-8.51,-8.45,0,*5F
1514549285.95,60075,6.44,71934.5,-8.07,-8.45,-8.45,0,*5B
1514549287.18,60076,6.44,71928.8,-8.07,-8.45,-8.37,0,*5D
1514549288.43,60077,6.44,71928.3,-8.07,-8.45,-8.51,0,*5C
1514549289.66,60078,6.44,71928.5,-8.07,-8.45,-8.45,0,*56
1514549290.91,60079,6.44,71930.5,-8.07,-8.51,-8.45,0,*52
1514549292.17,60080,6.44,71928.8,-8.07,-8.51,-8.45,0,*54
1514549293.42,60081,6.44,71930.3,-8.07,-8.45,-8.51,0,*55
1514549294.65,60082,6.44,71930.5,-8.07,-8.45,-8.45,0,*53
1514549295.9,60083,6.44,71934.3,-8.07,-8.45,-8.51,0,*57
1514549297.12,60084,6.44,71932.0,-8.07,-8.45,-8.45,0,*55
1514549298.35,60085,6.44,71934.0,-8.07,-8.45,-8.45,0,*54
1514549299.58,60086,6.44,71930.8,-8.07,-8.45,-8.45,0,*57
1514549300.83,60087,6.44,71928.8,-8.11,-8.55,-8.51,0,*55
1514549302.08,60088,6.44,71930.8,-8.11,-8.51,-8.55,0,*5A
1514549303.33,60089,6.44,71934.0,-8.07,-8.45,-8.51,0,*5D
1514549304.58,60090,6.44,71930.5,-8.07,-8.51,-8.45,0,*55
1514549305.83,60091,6.44,71934.0,-8.07,-8.45,-8.51,0,*54
1514549307.06,60092,6.44,71932.0,-8.07,-8.45,-8.45,0,*52
1514549308.29,60093,6.44,71930.8,-8.07,-8.45,-8.45,0,*53
1514549309.51,60094,6.44,71934.0,-8.07,-8.45,-8.45,0,*54
1514549310.74,60095,6.44,71928.3,-8.07,-8.37,-8.45,0,*50
1514549311.97,60096,6.44,71934.5,-8.07,-8.37,-8.37,0,*56